Regional Weather Roundup
Issued by NWS

Home | Current Version | Previous Version | Text Only | Print | Product List | Glossary On
Versions: 1 2 3 4 5 6 7 8 9 10 11 12 13 14 15 16 17 18 19 20 21 22 23 24 25 26 27 28 29 30 31 32 33 34 35 36 37 38 39 40 41 42 43 44 45 46 47 48 49 50
252
ASUS43 KMPX 192001
RWRMN
WEATHER ROUNDUP FOR MINNESOTA
NATIONAL WEATHER SERVICE TWIN CITIES/CHANHASSEN MN
200 PM CST THU JAN 19 2017


NOTE: "FAIR" INDICATES FEW OR NO CLOUDS BELOW 12,000 FEET WITH NO
SIGNIFICANT WEATHER AND/OR OBSTRUCTIONS TO VISIBILITY. N/A MEANS
CURRENT SKY AND/OR WEATHER CONDITIONS ARE NOT AVAILABLE.

MNZ060>063-068>070-192100-
   Twin Cities Metro

CITY           SKY/WX    TMP DP  RH WIND       PRES   REMARKS
TWIN CITIES    PTSUNNY   36  32  85 S7        29.76S
ST PAUL        CLOUDY    34  33  96 SE9       29.78F FOG     WCI  27
CRYSTAL        SUNNY     39  31  72 SE10      29.73F
BLAINE         SUNNY     41  36  81 SE7       29.74F
LAKEVILLE      CLOUDY    34  34 100 SE7       29.76F WCI  28
EDEN PRAIRIE   MOSUNNY   40  33  76 SE12      29.73F
SOUTH ST PAUL  CLOUDY    34  33  94 SE8       29.77F FOG     WCI  28
LAKE ELMO      CLOUDY    34  32  93 S7        29.78F FOG     WCI  28
$$
MNZ001>005-007-008-013>017-022>024-027-028-192100-
   Northwest Minnesota

CITY           SKY/WX    TMP DP  RH WIND       PRES   REMARKS
BEMIDJI        SUNNY     40  35  84 S6        29.60F
HALLOCK        CLOUDY    30  28  93 S18       29.53S FOG     WCI  18
ROSEAU         CLOUDY    34  28  80 S13       29.56F HAZE    WCI  25
WARROAD        SUNNY     39  32  75 S8        29.57S
THIEF RVR FALL SUNNY     39  33  79 S12       29.58S
CROOKSTON      SUNNY     34  34 100 S13       29.58S FOG     WCI  25
FOSSTON        SUNNY     43  34  70 S9        29.58F
DETROIT LAKES  SUNNY     41  36  81 S9        29.61S
MOORHEAD       SUNNY     36  34  93 S10       29.59F
PARK RAPIDS    SUNNY     41  34  76 S10       29.62F
MAHNOMEN       FAIR      40  35  83 S13       29.58S
$$
MNZ006-009>011-018-025>026-192100-
   North Central Minnesota

CITY           SKY/WX    TMP DP  RH WIND       PRES   REMARKS
BAUDETTE       MOSUNNY   35  30  82 S9        29.58F WCI  28
FLAG ISLAND    CLOUDY    30  28  93 SE16      29.56F FOG     WCI  19
INTL FALLS     MOSUNNY   38  32  79 S9        29.62F
WASKISH        SUNNY     39  34  81 S8        29.61F
BIG FORK       CLOUDY    37  36  93 S7        29.64F
LONGVILLE      SUNNY     41  39  93 SE5       29.65S
GRAND RAPIDS   CLOUDY    37  35  92 S9        29.68F FOG
CRANE LAKE     PTSUNNY   36  34  93 CALM      29.68S
ORR            CLOUDY    37  30  75 S7        29.63F
COOK           CLOUDY    37  36  93 S5        29.67S
WALKER         FAIR      39  35  85 E3        29.62F
$$
MNZ012-019>021-037-192100-
   Northeast Minnesota

CITY           SKY/WX    TMP DP  RH WIND       PRES   REMARKS
DULUTH         SUNNY     43  34  70 S8        29.69S
ELY            SUNNY     43  36  75 SW8       29.67R
HIBBING        FOG       34  34 100 S7        29.67S VSB 1/2 WCI  28
EVELETH        CLOUDY    37  37  99 S6        29.69F FOG
DULUTH HARBOR  SUNNY     36  34  93 CALM      29.72F FOG
TWO HARBORS    SUNNY     45  36  70 S6        29.69S
SILVER BAY     SUNNY     39  36  87 CALM      29.70S
G MARAIS ARPRT FOG       32  28  86 S5        29.71S VSB<1/4 WCI  27
$$
MNZ029>031-032-039>041-046>048-054>057-064-192100-
   West Central Minnesota

CITY           SKY/WX    TMP DP  RH WIND       PRES   REMARKS
FERGUS FALLS   SUNNY     37  36  93 SE16      29.65F
WHEATON        SUNNY     43  39  87 SE13      29.63S
MORRIS         SUNNY     37  36  93 SE13      29.62F
ALEXANDRIA     SUNNY     39  35  86 S8        29.65S
ELBOW LAKE     FAIR      36  33  90 SE13      29.63R FOG
WADENA         SUNNY     39  34  81 S9        29.64S
GLENWOOD       SUNNY     39  34  81 S8        29.65F
APPLETON       SUNNY     41  36  81 SE14      29.63S
BENSON         SUNNY     39  32  75 S14G20      N/A
ORTONVILLE     MOSUNNY   37  34  87 SE12      29.61F
MADISON        PTSUNNY   41  37  87 S17       29.62S FOG
WILLMAR        FOG       36  34  93 SE13      29.69F VSB 1
$$
MNZ033>034-036-042>043-049>051-058-059-192100-
   Central Minnesota

CITY           SKY/WX    TMP DP  RH WIND       PRES   REMARKS
ST CLOUD       MOSUNNY   37  34  89 S15       29.70S
SAUK CENTRE    FAIR      37  33  87 SE10      29.67S
PAYNESVILLE    FOG       34  34 100 S14       29.69S VSB 1   WCI  25
AITKIN         SUNNY     43  34  70 S9        29.66F
PINE RIVER     SUNNY     41  36  81 SE8       29.69F
BRAINERD       SUNNY     39  34  82 S8        29.67S
STAPLES        SUNNY     41  34  75 S7        29.65S
LONG PRAIRIE   FAIR      37  32  81 SE8       29.66F HAZE
LITTLE FALLS   SUNNY     41  34  75 S5        29.68F
LITCHFIELD     CLOUDY    36  36 100 SE7       29.71S FOG
BUFFALO        SUNNY     41  33  73 SE7       29.73F
MAPLE LAKE     SUNNY     41  35  78 SE6       29.73S
HUTCHINSON     CLOUDY    36  35  96 SE8       29.72F FOG
$$
MNZ037-044-045-052-053-192100-
   East Central Minnesota

CITY           SKY/WX    TMP DP  RH WIND       PRES   REMARKS
PRINCETON      SUNNY     46  36  66 SE7       29.71F
MORA           SUNNY     41  32  70 S7        29.73F
CAMBRIDGE      SUNNY     45  34  65 SE8       29.71S
RUSH CITY      SUNNY     43  32  65 S8        29.73F
MOOSE LAKE     SUNNY     45  34  65 S6        29.69S
HINCKLEY       FAIR      43  34  70 S7        29.72F
CLOQUET        SUNNY     45  34  65 S8        29.69S
MCGREGOR       SUNNY     39  36  87 S9        29.68F
$$
MNZ071>073-080-081-089-090-097-098-192100-
   Southwest Minnesota

CITY           SKY/WX    TMP DP  RH WIND       PRES   REMARKS
MONTEVIDEO     SUNNY     43  36  75 S13       29.66F
GRANITE FALLS  PTSUNNY   39  36  88 SE13      29.68F FOG
CANBY          CLOUDY    39  37  92 S10G21    29.63F FOG
MARSHALL       CLOUDY    39  37  92 S17       29.65F FOG
REDWOOD FALLS  CLOUDY    39  36  89 S9        29.68F FOG
OLIVIA         MOSUNNY   36  34  93 SE10      29.68F FOG
PIPESTONE      SNOW      37  36  93 S9        29.63S VSB<1/4
WINDOM         CLOUDY    39  37  93 SE8       29.68F FOG
WORTHINGTON    FOG       36  36 100 S13       29.67S VSB 1/4
JACKSON        CLOUDY    34  34 100 S9        29.69F FOG     WCI  26
TRACY          FOG       40  39  95 S13       29.65F VSB 1
SLAYTON        FOG       38  37  99 S12       29.66F VSB 1/2
$$
MNZ065>067-074>077-082>085-091>093-192100-
   South Central Minnesota

CITY           SKY/WX    TMP DP  RH WIND       PRES   REMARKS
MANKATO        MOSUNNY   36  33  89 SE15      29.73F
NEW ULM        PTSUNNY   37  34  87 S15       29.71F
ST JAMES       CLOUDY    37  36  93 SE9       29.72F
FAIRMONT       CLOUDY    37  35  92 S10       29.71F
GLENCOE        PTSUNNY   39  36  91 SE6       29.72S
FARIBAULT      CLOUDY    37  32  81 SE8       29.76F
OWATONNA       CLOUDY    36  32  87 S7        29.75F
WASECA         CLOUDY    34  32  93 SE9       29.76F WCI  26
ALBERT LEA     CLOUDY    34  34 100 S8        29.75F WCI  27
$$
MNZ078>079-086>088-094>096-192100-
   Southeast Minnesota

CITY           SKY/WX    TMP DP  RH WIND       PRES   REMARKS
ROCHESTER      CLOUDY    33  32  96 S16       29.78F WCI  23
RED WING       CLOUDY    36  32  87 SE7       29.78S
STANTON        CLOUDY    36  32  85 S3        29.75F
DODGE CENTER   MOSUNNY   34  32  93 SE12      29.76F WCI  25
WINONA         CLOUDY    37  32  81 S6        29.82F
AUSTIN         CLOUDY    34  30  86 SE7       29.77F FOG     WCI  28
PRESTON        CLOUDY    34  32  92 SE6       29.79F WCI  29
$$
ABBREVIATIONS USED IN REMARKS
   TC - TEMPERATURES IN CELSIUS
  WCI - WIND CHILL INDEX
   HX - HEAT INDEX
  VSB - VISIBILITY
$$




USA.gov is the U.S. government's official web portal to all federal, state and local government web resources and services.